| time (UTC) | temp C | wind direction | speed KPH | gust KPH | rain 1hr cm | rain 24hr cm | rain mn cm | humidity % | barometer mb |
| 20260505035606 | 18 | 358 | 0.0 | 1.6 | 0.00 | 0.00 | 0.00 | 60 | 1013.1 |
| 20260505035103 | 19 | 22 | 0.0 | 1.6 | 0.00 | 0.00 | 0.00 | 59 | 1012.9 |
| 20260505034559 | 19 | 342 | 3.2 | 3.2 | 0.00 | 0.00 | 0.00 | 59 | 1012.8 |
| 20260505034056 | 19 | 356 | 6.4 | 8.0 | 0.00 | 0.00 | 0.00 | 58 | 1012.8 |
| 20260505033553 | 19 | 294 | 1.6 | 1.6 | 0.00 | 0.00 | 0.00 | 57 | 1012.8 |
| 20260505033052 | 20 | 11 | 8.0 | 9.7 | 0.00 | 0.00 | 0.00 | 56 | 1012.8 |
| 20260505032549 | 20 | 357 | 4.8 | 4.8 | 0.00 | 0.00 | 0.00 | 56 | 1012.6 |
| 20260505032045 | 20 | 12 | 3.2 | 3.2 | 0.00 | 0.00 | 0.00 | 56 | 1012.6 |
| 20260505031543 | 20 | 357 | 8.0 | 11.3 | 0.00 | 0.00 | 0.00 | 55 | 1012.5 |
| 20260505031039 | 21 | 350 | 11.3 | 14.5 | 0.00 | 0.00 | 0.00 | 53 | 1012.3 |
| 20260505030536 | 21 | 332 | 11.3 | 12.9 | 0.00 | 0.00 | 0.00 | 53 | 1012.2 |
| 20260505030032 | 22 | 35 | 4.8 | 9.7 | 0.00 | 0.00 | 0.00 | 53 | 1012.3 |
| 20260505025528 | 22 | 328 | 9.7 | 12.9 | 0.00 | 0.00 | 0.00 | 52 | 1012.2 |
| 20260505025027 | 23 | 47 | 0.0 | 0.0 | 0.00 | 0.00 | 0.00 | 50 | 1012.1 |
| 20260505024524 | 23 | 339 | 4.8 | 8.0 | 0.00 | 0.00 | 0.00 | 49 | 1012.2 |
| 20260505024021 | 23 | 17 | 1.6 | 3.2 | 0.00 | 0.00 | 0.00 | 48 | 1011.9 |
| 20260505023518 | 24 | 65 | 1.6 | 1.6 | 0.00 | 0.00 | 0.00 | 48 | 1012.0 |
| 20260505023015 | 25 | 18 | 3.2 | 4.8 | 0.00 | 0.00 | 0.00 | 49 | 1012.1 |
| 20260505022513 | 25 | 270 | 4.8 | 4.8 | 0.00 | 0.00 | 0.00 | 44 | 1012.0 |
| 20260505022010 | 25 | 272 | 4.8 | 4.8 | 0.00 | 0.00 | 0.00 | 44 | 1012.2 |
| 20260505021506 | 25 | 246 | 3.2 | 3.2 | 0.00 | 0.00 | 0.00 | 44 | 1012.0 |
| 20260505021003 | 25 | 237 | 4.8 | 4.8 | 0.00 | 0.00 | 0.00 | 43 | 1012.0 |
| 20260505020457 | 25 | 311 | 3.2 | 3.2 | 0.00 | 0.00 | 0.00 | 43 | 1012.1 |
| 20260505015954 | 26 | 267 | 6.4 | 8.0 | 0.00 | 0.00 | 0.00 | 42 | 1012.0 |
| 20260505015452 | 25 | 213 | 3.2 | 3.2 | 0.00 | 0.00 | 0.00 | 43 | 1011.9 |
| 20260505014949 | 25 | 270 | 8.0 | 9.7 | 0.00 | 0.00 | 0.00 | 42 | 1012.0 |
| 20260505014445 | 26 | 262 | 1.6 | 1.6 | 0.00 | 0.00 | 0.00 | 42 | 1012.2 |
| 20260505013943 | 26 | 227 | 1.6 | 1.6 | 0.00 | 0.00 | 0.00 | 41 | 1012.0 |
| 20260505013440 | 26 | 204 | 1.6 | 1.6 | 0.00 | 0.00 | 0.00 | 42 | 1011.8 |
| 20260505012937 | 25 | 248 | 3.2 | 3.2 | 0.00 | 0.00 | 0.00 | 42 | 1012.2 |
| 20260505012435 | 25 | 297 | 4.8 | 4.8 | 0.00 | 0.00 | 0.00 | 41 | 1012.3 |
| 20260505011931 | 26 | 254 | 8.0 | 11.3 | 0.00 | 0.00 | 0.00 | 40 | 1012.3 |
| 20260505011428 | 26 | 296 | 4.8 | 4.8 | 0.00 | 0.00 | 0.00 | 40 | 1012.2 |
| 20260505010925 | 26 | 251 | 3.2 | 3.2 | 0.00 | 0.00 | 0.00 | 40 | 1012.4 |
| 20260505010420 | 26 | 255 | 4.8 | 4.8 | 0.00 | 0.00 | 0.00 | 39 | 1012.4 |
| 20260505005916 | 26 | 208 | 3.2 | 3.2 | 0.00 | 0.00 | 0.00 | 40 | 1012.3 |
| 20260505005414 | 26 | 356 | 3.2 | 3.2 | 0.00 | 0.00 | 0.00 | 39 | 1012.3 |
| 20260505004911 | 26 | 263 | 4.8 | 4.8 | 0.00 | 0.00 | 0.00 | 39 | 1012.3 |
| 20260505004407 | 26 | 5 | 1.6 | 3.2 | 0.00 | 0.00 | 0.00 | 39 | 1012.0 |
| 20260505003904 | 26 | 265 | 3.2 | 3.2 | 0.00 | 0.00 | 0.00 | 39 | 1012.2 |
| 20260505003401 | 27 | 220 | 4.8 | 8.0 | 0.00 | 0.00 | 0.00 | 38 | 1012.2 |
| 20260505002857 | 26 | 189 | 1.6 | 1.6 | 0.00 | 0.00 | 0.00 | 39 | 1012.3 |
| 20260505002354 | 25 | 197 | 3.2 | 3.2 | 0.00 | 0.00 | 0.00 | 40 | 1012.2 |
| 20260505001853 | 25 | 277 | 4.8 | 4.8 | 0.00 | 0.00 | 0.00 | 39 | 1012.3 |
| 20260505001349 | 26 | 315 | 4.8 | 4.8 | 0.00 | 0.00 | 0.00 | 40 | 1012.3 |
| 20260505000847 | 26 | 280 | 4.8 | 8.0 | 0.00 | 0.00 | 0.00 | 39 | 1012.4 |
| 20260505000344 | 26 | 222 | 3.2 | 3.2 | 0.00 | 0.00 | 0.00 | 39 | 1012.4 |
| 20260504235841 | 26 | 249 | 4.8 | 8.0 | 0.00 | 0.00 | 0.00 | 39 | 1012.5 |
| 20260504235338 | 26 | 276 | 4.8 | 4.8 | 0.00 | 0.00 | 0.00 | 38 | 1012.6 |
| 20260504234834 | 26 | 199 | 1.6 | 1.6 | 0.00 | 0.00 | 0.00 | 39 | 1012.5 |
| 20260504234332 | 26 | 269 | 9.7 | 12.9 | 0.00 | 0.00 | 0.00 | 39 | 1012.5 |
| 20260504233829 | 26 | 299 | 4.8 | 8.0 | 0.00 | 0.00 | 0.00 | 38 | 1012.5 |
| 20260504233324 | 26 | 246 | 11.3 | 12.9 | 0.00 | 0.00 | 0.00 | 40 | 1012.4 |
| 20260504232821 | 26 | 188 | 8.0 | 9.7 | 0.00 | 0.00 | 0.00 | 39 | 1012.5 |
| 20260504232319 | 26 | 265 | 4.8 | 4.8 | 0.00 | 0.00 | 0.00 | 40 | 1012.6 |
| 20260504231815 | 26 | 276 | 9.7 | 11.3 | 0.00 | 0.00 | 0.00 | 39 | 1012.5 |
| 20260504231312 | 26 | 290 | 1.6 | 3.2 | 0.00 | 0.00 | 0.00 | 38 | 1012.5 |
| 20260504230808 | 26 | 188 | 4.8 | 9.7 | 0.00 | 0.00 | 0.00 | 39 | 1012.6 |
| 20260504230306 | 26 | 201 | 4.8 | 8.0 | 0.00 | 0.00 | 0.00 | 39 | 1012.5 |
| 20260504225805 | 26 | 263 | 3.2 | 4.8 | 0.00 | 0.00 | 0.00 | 40 | 1012.5 |
| 20260504225300 | 26 | 179 | 8.0 | 11.3 | 0.00 | 0.00 | 0.00 | 39 | 1012.7 |
| 20260504224758 | 25 | 290 | 4.8 | 4.8 | 0.00 | 0.00 | 0.00 | 40 | 1012.4 |
| 20260504224255 | 26 | 248 | 6.4 | 9.7 | 0.00 | 0.00 | 0.00 | 40 | 1012.9 |
| 20260504223751 | 26 | 275 | 4.8 | 4.8 | 0.00 | 0.00 | 0.00 | 40 | 1012.9 |
| 20260504223247 | 26 | 320 | 8.0 | 9.7 | 0.00 | 0.00 | 0.00 | 40 | 1012.9 |
| 20260504222744 | 25 | 330 | 6.4 | 8.0 | 0.00 | 0.00 | 0.00 | 40 | 1012.9 |
| 20260504222241 | 25 | 271 | 1.6 | 1.6 | 0.00 | 0.00 | 0.00 | 40 | 1013.2 |
| 20260504221739 | 26 | 243 | 6.4 | 11.3 | 0.00 | 0.00 | 0.00 | 38 | 1013.1 |
| 20260504221235 | 26 | 293 | 11.3 | 12.9 | 0.00 | 0.00 | 0.00 | 37 | 1013.2 |
| 20260504220732 | 25 | 185 | 9.7 | 11.3 | 0.00 | 0.00 | 0.00 | 38 | 1013.2 |
| 20260504220229 | 25 | 239 | 11.3 | 12.9 | 0.00 | 0.00 | 0.00 | 37 | 1013.4 |
| 20260504215726 | 25 | 321 | 3.2 | 4.8 | 0.00 | 0.00 | 0.00 | 39 | 1013.3 |
| 20260504215223 | 25 | 264 | 11.3 | 14.5 | 0.00 | 0.00 | 0.00 | 37 | 1013.4 |
| 20260504214719 | 25 | 269 | 4.8 | 8.0 | 0.00 | 0.00 | 0.00 | 37 | 1013.1 |
| 20260504214215 | 25 | 259 | 4.8 | 8.0 | 0.00 | 0.00 | 0.00 | 38 | 1013.3 |
| 20260504213712 | 25 | 290 | 4.8 | 9.7 | 0.00 | 0.00 | 0.00 | 38 | 1013.3 |
| 20260504213209 | 26 | 287 | 9.7 | 11.3 | 0.00 | 0.00 | 0.00 | 37 | 1013.3 |
| 20260504212706 | 26 | 261 | 1.6 | 1.6 | 0.00 | 0.00 | 0.00 | 36 | 1013.4 |
| 20260504212202 | 26 | 297 | 3.2 | 3.2 | 0.00 | 0.00 | 0.00 | 37 | 1013.3 |
| 20260504211700 | 26 | 262 | 9.7 | 11.3 | 0.00 | 0.00 | 0.00 | 37 | 1013.5 |
| 20260504211155 | 26 | 233 | 8.0 | 9.7 | 0.00 | 0.00 | 0.00 | 37 | 1013.1 |
| 20260504210653 | 25 | 273 | 1.6 | 3.2 | 0.00 | 0.00 | 0.00 | 38 | 1013.3 |
| 20260504210150 | 25 | 336 | 3.2 | 3.2 | 0.00 | 0.00 | 0.00 | 38 | 1013.3 |
| 20260504205647 | 25 | 234 | 6.4 | 9.7 | 0.00 | 0.00 | 0.00 | 37 | 1013.4 |
| 20260504205144 | 25 | 180 | 6.4 | 9.7 | 0.00 | 0.00 | 0.00 | 38 | 1013.5 |
| 20260504204643 | 26 | 163 | 8.0 | 11.3 | 0.00 | 0.00 | 0.00 | 39 | 1013.2 |
| 20260504204141 | 25 | 192 | 3.2 | 3.2 | 0.00 | 0.00 | 0.00 | 41 | 1013.3 |
| 20260504203640 | 25 | 295 | 3.2 | 3.2 | 0.00 | 0.00 | 0.00 | 40 | 1013.3 |
| 20260504203137 | 26 | 202 | 1.6 | 3.2 | 0.00 | 0.00 | 0.00 | 40 | 1013.5 |
| 20260504202637 | 25 | 186 | 8.0 | 11.3 | 0.00 | 0.00 | 0.00 | 41 | 1013.6 |
| 20260504202134 | 25 | 285 | 4.8 | 4.8 | 0.00 | 0.00 | 0.00 | 41 | 1013.4 |
| 20260504201631 | 24 | 268 | 11.3 | 12.9 | 0.00 | 0.00 | 0.00 | 43 | 1013.4 |
| 20260504201129 | 24 | 264 | 8.0 | 11.3 | 0.00 | 0.00 | 0.00 | 44 | 1013.6 |
| 20260504200626 | 25 | 269 | 8.0 | 11.3 | 0.00 | 0.00 | 0.00 | 41 | 1013.6 |
| 20260504200122 | 25 | 98 | 0.0 | 1.6 | 0.00 | 0.00 | 0.00 | 42 | 1013.6 |
| 20260504195618 | 25 | 181 | 1.6 | 3.2 | 0.00 | 0.00 | 0.00 | 43 | 1013.5 |
| 20260504195115 | 24 | 50 | 1.6 | 1.6 | 0.00 | 0.00 | 0.00 | 45 | 1013.3 |
| 20260504194612 | 25 | 174 | 4.8 | 4.8 | 0.00 | 0.00 | 0.00 | 43 | 1013.6 |
| 20260504194107 | 23 | 332 | 1.6 | 3.2 | 0.00 | 0.00 | 0.00 | 44 | 1013.7 |
| 20260504193604 | 24 | 289 | 1.6 | 3.2 | 0.00 | 0.00 | 0.00 | 44 | 1013.6 |
| 20260504193102 | 25 | 191 | 3.2 | 4.8 | 0.00 | 0.00 | 0.00 | 43 | 1013.5 |
| 20260504192600 | 25 | 189 | 1.6 | 3.2 | 0.00 | 0.00 | 0.00 | 44 | 1013.7 |
| 20260504192058 | 24 | 173 | 8.0 | 8.0 | 0.00 | 0.00 | 0.00 | 44 | 1013.9 |
| 20260504191556 | 23 | 65 | 4.8 | 4.8 | 0.00 | 0.00 | 0.00 | 45 | 1013.7 |
| 20260504191052 | 23 | 292 | 8.0 | 9.7 | 0.00 | 0.00 | 0.00 | 44 | 1014.0 |
| 20260504190548 | 23 | 303 | 4.8 | 9.7 | 0.00 | 0.00 | 0.00 | 46 | 1013.8 |
| 20260504190044 | 23 | 261 | 4.8 | 8.0 | 0.00 | 0.00 | 0.00 | 45 | 1013.7 |
| 20260504185542 | 23 | 343 | 6.4 | 8.0 | 0.00 | 0.00 | 0.00 | 46 | 1014.0 |
| 20260504185038 | 23 | 198 | 1.6 | 3.2 | 0.00 | 0.00 | 0.00 | 49 | 1014.1 |
| 20260504184533 | 23 | 193 | 3.2 | 4.8 | 0.00 | 0.00 | 0.00 | 46 | 1013.9 |
| 20260504184029 | 23 | 331 | 3.2 | 3.2 | 0.00 | 0.00 | 0.00 | 49 | 1014.1 |
| 20260504183526 | 23 | 221 | 3.2 | 4.8 | 0.00 | 0.00 | 0.00 | 49 | 1013.9 |
| 20260504183025 | 22 | 294 | 8.0 | 9.7 | 0.00 | 0.00 | 0.00 | 48 | 1014.0 |
| 20260504182521 | 22 | 221 | 1.6 | 1.6 | 0.00 | 0.00 | 0.00 | 49 | 1014.0 |
| 20260504182018 | 23 | 16 | 3.2 | 4.8 | 0.00 | 0.00 | 0.00 | 49 | 1013.8 |
| 20260504181515 | 22 | 181 | 3.2 | 4.8 | 0.00 | 0.00 | 0.00 | 52 | 1013.9 |
| 20260504181014 | 22 | 206 | 3.2 | 4.8 | 0.00 | 0.00 | 0.00 | 52 | 1014.0 |
| 20260504180512 | 21 | 162 | 1.6 | 3.2 | 0.00 | 0.00 | 0.00 | 53 | 1013.9 |
| 20260504180011 | 22 | 175 | 1.6 | 1.6 | 0.00 | 0.00 | 0.00 | 51 | 1014.1 |
| 20260504175508 | 22 | 333 | 4.8 | 8.0 | 0.00 | 0.00 | 0.00 | 51 | 1013.9 |
| 20260504175005 | 22 | 159 | 1.6 | 3.2 | 0.00 | 0.00 | 0.00 | 51 | 1014.0 |
| 20260504174502 | 21 | 223 | 4.8 | 4.8 | 0.00 | 0.00 | 0.00 | 52 | 1014.1 |
| 20260504173959 | 22 | 142 | 1.6 | 3.2 | 0.00 | 0.00 | 0.00 | 51 | 1013.9 |
| 20260504173456 | 21 | 102 | 0.0 | 0.0 | 0.00 | 0.00 | 0.00 | 50 | 1014.2 |
| 20260504172953 | 21 | 278 | 1.6 | 1.6 | 0.00 | 0.00 | 0.00 | 51 | 1014.0 |
| 20260504172449 | 21 | 224 | 3.2 | 4.8 | 0.00 | 0.00 | 0.00 | 52 | 1014.0 |
| 20260504171946 | 22 | 234 | 4.8 | 4.8 | 0.00 | 0.00 | 0.00 | 50 | 1014.0 |
| 20260504171443 | 21 | 276 | 3.2 | 3.2 | 0.00 | 0.00 | 0.00 | 53 | 1013.9 |
| 20260504170940 | 21 | 221 | 4.8 | 4.8 | 0.00 | 0.00 | 0.00 | 52 | 1014.1 |
| 20260504170436 | 21 | 182 | 1.6 | 1.6 | 0.00 | 0.00 | 0.00 | 52 | 1014.1 |
| 20260504160355 | 19 | 147 | 0.0 | 1.6 | 0.00 | 0.00 | 0.00 | 56 | 1013.8 |
| 20260504150820 | 16 | 203 | 3.2 | 3.2 | 0.00 | 0.00 | 0.00 | 70 | 1013.3 |
| 20260504150316 | 15 | 244 | 0.0 | 0.0 | 0.00 | 0.00 | 0.00 | 75 | 1013.4 |
| 20260504141247 | 11 | 69 | 0.0 | 0.0 | 0.00 | 0.00 | 0.00 | 88 | 1013.2 |
| 20260504140743 | 11 | 69 | 0.0 | 1.6 | 0.00 | 0.00 | 0.00 | 89 | 1013.0 |
| 20260504140239 | 11 | 69 | 1.6 | 1.6 | 0.00 | 0.00 | 0.00 | 89 | 1013.2 |
| 20260504130708 | 10 | 69 | 0.0 | 1.6 | 0.00 | 0.00 | 0.00 | 92 | 1012.7 |
| 20260504130203 | 10 | 69 | 0.0 | 1.6 | 0.00 | 0.00 | 0.00 | 92 | 1012.8 |
| 20260504120127 | 10 | 69 | 1.6 | 1.6 | 0.00 | 0.00 | 0.00 | 89 | 1012.7 |
| 20260504110555 | 11 | 69 | 0.0 | 1.6 | 0.00 | 0.00 | 0.00 | 89 | 1012.6 |
| 20260504100516 | 11 | 69 | 1.6 | 1.6 | 0.00 | 0.00 | 0.00 | 86 | 1012.5 |
| 20260504081910 | 12 | 69 | 0.0 | 1.6 | 0.00 | 0.00 | 0.00 | 83 | 1012.4 |
| 20260504081406 | 13 | 69 | 0.0 | 1.6 | 0.00 | 0.00 | 0.00 | 83 | 1012.5 |
| 20260504080902 | 13 | 64 | 1.6 | 1.6 | 0.00 | 0.00 | 0.00 | 82 | 1012.5 |
| 20260504080400 | 13 | 64 | 1.6 | 1.6 | 0.00 | 0.00 | 0.00 | 81 | 1012.5 |
| 20260504070327 | 14 | 76 | 0.0 | 1.6 | 0.00 | 0.00 | 0.00 | 72 | 1012.9 |
| 20260504060247 | 15 | 70 | 1.6 | 1.6 | 0.00 | 0.00 | 0.00 | 76 | 1012.6 |
| 20260504050715 | 16 | 73 | 0.0 | 1.6 | 0.00 | 0.00 | 0.00 | 74 | 1012.8 |
| 20260504050212 | 16 | 73 | 1.6 | 1.6 | 0.00 | 0.00 | 0.00 | 73 | 1012.7 |
| 20260504045710 | 17 | 83 | 1.6 | 1.6 | 0.00 | 0.00 | 0.00 | 70 | 1012.6 |
| 20260504045209 | 17 | 73 | 0.0 | 1.6 | 0.00 | 0.00 | 0.00 | 72 | 1012.6 |
| 20260504044708 | 17 | 10 | 1.6 | 1.6 | 0.00 | 0.00 | 0.00 | 65 | 1012.5 |
| 20260504044205 | 17 | 76 | 0.0 | 0.0 | 0.00 | 0.00 | 0.00 | 68 | 1012.7 |
| 20260504043701 | 17 | 58 | 0.0 | 0.0 | 0.00 | 0.00 | 0.00 | 65 | 1012.6 |
| 20260504043158 | 18 | 15 | 1.6 | 1.6 | 0.00 | 0.00 | 0.00 | 62 | 1012.7 |
| 20260504042656 | 18 | 6 | 3.2 | 3.2 | 0.00 | 0.00 | 0.00 | 63 | 1012.4 |
| 20260504042152 | 18 | 65 | 1.6 | 1.6 | 0.00 | 0.00 | 0.00 | 63 | 1012.4 |
| 20260504041648 | 18 | 59 | 1.6 | 1.6 | 0.00 | 0.00 | 0.00 | 65 | 1012.5 |
| 20260504041144 | 18 | 51 | 1.6 | 1.6 | 0.00 | 0.00 | 0.00 | 65 | 1012.4 |
| 20260504040641 | 19 | 54 | 3.2 | 4.8 | 0.00 | 0.00 | 0.00 | 59 | 1012.2 |
| 20260504040138 | 20 | 15 | 1.6 | 1.6 | 0.00 | 0.00 | 0.00 | 60 | 1012.4 |